Вернуться в каталог

KUIPER-00634

АктивенСвязьLEO
NORAD 69785·PAYLOAD·🇺🇸 United States

Запущен Jul 2, 2026 с Cape Canaveral Space Force Station

Loading…

Ближайшие Пролёты (ближайшие 24 часа)

TLE

СвежийSource: CelesTrak SupGP

Эпоха: Sep 14, 2026, 23:15 UTC

1 69785C 26151Y   26257.96909722  .00000386  00000+0  50491-4 0  2572
2 69785  51.8986 256.1572 0000912  93.0058   2.8806 14.79931427    11

Отслеживайте KUIPER-00634 в реальном времени с AllMySat

Download on the App Store